Date,TemperatureHighF,TemperatureAvgF,TemperatureLowF,DewpointHighF,DewpointAvgF,DewpointLowF,HumidityHigh,HumidityAvg,HumidityLow,PressureMaxIn,PressureMinIn,WindSpeedMaxMPH,WindSpeedAvgMPH,GustSpeedMaxMPH,PrecipitationSumIn
2013-2-1,4.0,-2.5,-11.0,-1.0,-12.0,-18.0,82,64,49,0.00,40.00,11,4,21,0.00
2013-2-2,17.0,7.2,2.0,2.0,-2.0,-7.0,84,68,40,0.00,40.00,4,1,8,0.00
2013-2-3,17.0,11.2,7.0,6.0,2.9,-1.0,88,70,48,0.00,40.00,9,4,16,0.00
2013-2-4,22.0,11.1,2.0,8.0,0.6,-5.0,91,66,33,0.00,40.00,5,1,7,0.00
2013-2-5,29.0,18.2,2.0,24.0,12.4,0.0,93,79,55,0.00,40.00,9,4,17,0.00
2013-2-6,26.0,11.9,-5.0,23.0,9.3,-7.0,91,89,83,0.00,40.00,6,2,12,0.00
2013-2-7,27.0,26.1,25.0,27.0,23.9,22.0,98,91,87,0.00,40.00,5,3,12,0.00
2013-2-8,29.0,19.7,8.0,22.0,10.4,5.0,90,70,41,0.00,40.00,5,2,11,0.00
2013-2-9,29.0,23.4,8.0,25.0,20.1,6.0,93,87,80,0.00,40.00,12,5,22,0.00
2013-2-10,36.0,29.7,27.0,36.0,28.1,24.0,99,93,87,0.00,40.00,10,6,21,0.00
2013-2-11,32.0,27.1,22.0,32.0,21.9,15.0,99,81,71,0.00,40.00,12,8,27,0.00
2013-2-12,35.0,25.9,16.0,25.0,18.6,13.0,95,75,55,0.00,40.00,9,5,15,0.00
2013-2-13,38.0,29.5,21.0,32.0,23.6,19.0,98,80,56,0.00,40.00,7,3,9,0.00
2013-2-14,34.0,28.6,16.0,32.0,24.1,5.0,99,84,53,0.00,40.00,8,4,19,0.00
2013-2-15,20.0,12.9,6.0,5.0,2.1,0.0,75,62,50,0.00,40.00,11,5,17,0.00
2013-2-16,24.0,8.5,-5.0,4.0,-1.5,-8.0,86,66,41,0.00,40.00,4,2,8,0.00
2013-2-17,28.0,11.8,-11.0,15.0,2.5,-14.0,88,69,49,0.00,40.00,9,4,18,0.00
2013-2-18,39.0,26.8,18.0,30.0,21.1,15.0,89,79,67,0.00,40.00,11,6,22,0.00
2013-2-19,17.0,9.4,4.0,14.0,-0.1,-7.0,86,66,50,0.00,40.00,14,9,28,0.00
2013-2-20,25.0,9.1,-2.0,7.0,-0.2,-8.0,80,67,46,0.00,40.00,7,3,14,0.00
2013-2-21,24.0,13.3,-2.0,13.0,5.0,-4.0,92,71,49,0.00,40.00,6,2,11,0.00
2013-2-22,35.0,25.8,20.0,25.0,22.5,13.0,98,88,67,0.00,40.00,7,3,16,0.00
2013-2-23,31.0,25.8,22.0,24.0,22.3,21.0,97,87,72,0.00,40.00,8,6,14,0.00
2013-2-24,40.0,22.8,18.0,22.0,19.6,17.0,96,88,45,0.00,40.00,5,1,8,0.00
2013-2-25,36.0,27.8,15.0,27.0,23.7,15.0,98,85,69,0.00,40.00,3,1,7,0.00
2013-2-26,37.0,32.2,27.0,28.0,25.8,24.0,92,77,61,0.00,40.00,9,3,18,0.00
2013-2-27,37.0,32.9,31.0,29.0,25.7,23.0,84,75,66,0.00,40.00,6,4,21,0.00
2013-2-28,33.0,29.6,24.0,27.0,21.7,15.0,87,73,62,0.00,40.00,6,4,20,0.00